| time (UTC) | temp C | wind direction | speed KPH | gust KPH | rain 1hr cm | rain 24hr cm | rain mn cm | humidity % | barometer mb |
| 20260506215003 | 11 | 267 | 1.6 | 1.6 | 0.00 | 0.97 | 0.97 | 61 | 1009.3 |
| 20260506214500 | 11 | 282 | 4.8 | 8.0 | 0.00 | 0.97 | 0.97 | 59 | 1009.4 |
| 20260506213957 | 12 | 276 | 3.2 | 3.2 | 0.00 | 0.97 | 0.97 | 61 | 1009.5 |
| 20260506213455 | 12 | 290 | 3.2 | 3.2 | 0.00 | 0.97 | 0.97 | 59 | 1009.2 |
| 20260506212952 | 12 | 274 | 3.2 | 3.2 | 0.00 | 0.97 | 0.97 | 60 | 1009.1 |
| 20260506212448 | 12 | 292 | 4.8 | 4.8 | 0.00 | 0.97 | 0.97 | 58 | 1009.2 |
| 20260506211943 | 12 | 280 | 3.2 | 3.2 | 0.00 | 0.97 | 0.97 | 61 | 1009.1 |
| 20260506211439 | 12 | 307 | 4.8 | 4.8 | 0.00 | 0.97 | 0.97 | 61 | 1009.0 |
| 20260506210937 | 12 | 271 | 1.6 | 3.2 | 0.00 | 0.97 | 0.97 | 62 | 1009.2 |
| 20260506210433 | 12 | 274 | 3.2 | 3.2 | 0.00 | 0.97 | 0.97 | 64 | 1009.2 |
| 20260506205931 | 12 | 309 | 1.6 | 1.6 | 0.00 | 0.97 | 0.97 | 62 | 1009.2 |
| 20260506205427 | 12 | 272 | 3.2 | 3.2 | 0.00 | 0.97 | 0.97 | 61 | 1009.1 |
| 20260506204923 | 12 | 280 | 3.2 | 3.2 | 0.00 | 0.97 | 0.97 | 66 | 1008.9 |
| 20260506204421 | 12 | 267 | 4.8 | 4.8 | 0.00 | 0.97 | 0.97 | 62 | 1008.9 |
| 20260506203918 | 12 | 299 | 3.2 | 3.2 | 0.00 | 0.97 | 0.97 | 62 | 1009.0 |
| 20260506203415 | 12 | 305 | 4.8 | 4.8 | 0.00 | 0.97 | 0.97 | 63 | 1008.8 |
| 20260506202912 | 12 | 310 | 4.8 | 4.8 | 0.00 | 0.97 | 0.97 | 63 | 1008.9 |
| 20260506202409 | 12 | 317 | 6.4 | 8.0 | 0.00 | 0.97 | 0.97 | 60 | 1008.9 |
| 20260506201905 | 12 | 281 | 3.2 | 4.8 | 0.00 | 0.97 | 0.97 | 63 | 1008.7 |
| 20260506201403 | 12 | 315 | 4.8 | 4.8 | 0.00 | 0.97 | 0.97 | 62 | 1008.7 |
| 20260506200859 | 12 | 17 | 4.8 | 4.8 | 0.00 | 0.97 | 0.97 | 61 | 1008.8 |
| 20260506200355 | 13 | 271 | 3.2 | 3.2 | 0.00 | 0.97 | 0.97 | 65 | 1008.7 |
| 20260506195852 | 13 | 262 | 1.6 | 3.2 | 0.00 | 0.97 | 0.97 | 64 | 1008.8 |
| 20260506195349 | 13 | 2 | 4.8 | 8.0 | 0.00 | 0.97 | 0.97 | 62 | 1008.8 |
| 20260506194846 | 13 | 296 | 9.7 | 11.3 | 0.00 | 0.97 | 0.97 | 59 | 1008.6 |
| 20260506194343 | 13 | 5 | 1.6 | 3.2 | 0.00 | 0.97 | 0.97 | 63 | 1008.6 |
| 20260506193840 | 13 | 297 | 4.8 | 8.0 | 0.00 | 0.97 | 0.97 | 62 | 1008.7 |
| 20260506193337 | 13 | 260 | 4.8 | 4.8 | 0.00 | 0.97 | 0.97 | 60 | 1008.7 |
| 20260506192833 | 13 | 294 | 9.7 | 11.3 | 0.00 | 0.97 | 0.97 | 59 | 1008.5 |
| 20260506192330 | 13 | 270 | 1.6 | 1.6 | 0.00 | 0.97 | 0.97 | 61 | 1008.4 |
| 20260506191827 | 13 | 335 | 3.2 | 4.8 | 0.00 | 0.97 | 0.97 | 63 | 1008.7 |
| 20260506191323 | 13 | 292 | 8.0 | 9.7 | 0.00 | 0.97 | 0.97 | 62 | 1008.6 |
| 20260506190820 | 13 | 290 | 1.6 | 1.6 | 0.00 | 0.97 | 0.97 | 57 | 1008.6 |
| 20260506190317 | 13 | 271 | 4.8 | 4.8 | 0.00 | 0.97 | 0.97 | 59 | 1008.7 |
| 20260506185814 | 14 | 296 | 3.2 | 3.2 | 0.00 | 0.97 | 0.97 | 58 | 1008.6 |
| 20260506185311 | 13 | 303 | 6.4 | 8.0 | 0.00 | 0.97 | 0.97 | 56 | 1008.6 |
| 20260506184808 | 14 | 14 | 3.2 | 3.2 | 0.00 | 0.97 | 0.97 | 63 | 1008.6 |
| 20260506184305 | 14 | 291 | 4.8 | 8.0 | 0.00 | 0.97 | 0.97 | 60 | 1008.7 |
| 20260506183802 | 13 | 292 | 3.2 | 4.8 | 0.00 | 0.97 | 0.97 | 62 | 1008.8 |
| 20260506183257 | 13 | 282 | 6.4 | 8.0 | 0.00 | 0.97 | 0.97 | 58 | 1008.7 |
| 20260506182754 | 13 | 308 | 4.8 | 4.8 | 0.00 | 0.97 | 0.97 | 57 | 1008.8 |
| 20260506182252 | 13 | 306 | 4.8 | 4.8 | 0.00 | 0.97 | 0.97 | 61 | 1008.6 |
| 20260506181750 | 13 | 289 | 3.2 | 3.2 | 0.00 | 0.97 | 0.97 | 59 | 1008.5 |
| 20260506181247 | 13 | 275 | 1.6 | 3.2 | 0.00 | 0.97 | 0.97 | 60 | 1008.8 |
| 20260506180744 | 13 | 276 | 3.2 | 3.2 | 0.00 | 0.97 | 0.97 | 54 | 1008.9 |
| 20260506180240 | 13 | 297 | 4.8 | 4.8 | 0.00 | 0.97 | 0.97 | 61 | 1008.8 |
| 20260506175736 | 13 | 329 | 4.8 | 4.8 | 0.00 | 0.97 | 0.97 | 61 | 1008.7 |
| 20260506175233 | 13 | 274 | 8.0 | 9.7 | 0.00 | 0.97 | 0.97 | 59 | 1008.9 |
| 20260506174731 | 13 | 299 | 4.8 | 4.8 | 0.00 | 0.97 | 0.97 | 61 | 1008.9 |
| 20260506174227 | 13 | 265 | 4.8 | 4.8 | 0.00 | 0.97 | 0.97 | 59 | 1008.9 |
| 20260506173725 | 13 | 282 | 3.2 | 4.8 | 0.00 | 0.97 | 0.97 | 62 | 1008.9 |
| 20260506173222 | 13 | 312 | 8.0 | 9.7 | 0.00 | 0.97 | 0.97 | 63 | 1008.9 |
| 20260506172719 | 13 | 279 | 4.8 | 4.8 | 0.00 | 0.97 | 0.97 | 64 | 1008.8 |
| 20260506172215 | 13 | 318 | 4.8 | 4.8 | 0.00 | 0.97 | 0.97 | 64 | 1008.9 |
| 20260506171713 | 13 | 281 | 4.8 | 4.8 | 0.00 | 0.97 | 0.97 | 66 | 1008.8 |
| 20260506171210 | 13 | 329 | 3.2 | 3.2 | 0.00 | 0.97 | 0.97 | 63 | 1008.9 |
| 20260506170708 | 13 | 292 | 4.8 | 4.8 | 0.00 | 0.97 | 0.97 | 62 | 1008.7 |
| 20260506170204 | 13 | 351 | 4.8 | 8.0 | 0.00 | 0.97 | 0.97 | 64 | 1008.6 |
| 20260506165703 | 13 | 255 | 1.6 | 3.2 | 0.00 | 0.97 | 0.97 | 62 | 1008.6 |
| 20260506165159 | 13 | 322 | 3.2 | 3.2 | 0.00 | 0.97 | 0.97 | 66 | 1008.8 |
| 20260506164656 | 12 | 258 | 1.6 | 3.2 | 0.00 | 0.97 | 0.97 | 69 | 1008.9 |
| 20260506164154 | 13 | 307 | 8.0 | 9.7 | 0.00 | 0.97 | 0.97 | 67 | 1009.0 |
| 20260506163650 | 13 | 278 | 1.6 | 3.2 | 0.00 | 0.97 | 0.97 | 63 | 1009.1 |
| 20260506163145 | 13 | 265 | 4.8 | 4.8 | 0.00 | 0.97 | 0.97 | 66 | 1008.8 |
| 20260506162641 | 12 | 299 | 4.8 | 4.8 | 0.00 | 0.97 | 0.97 | 67 | 1008.9 |
| 20260506162139 | 12 | 15 | 4.8 | 4.8 | 0.00 | 0.97 | 0.97 | 72 | 1008.7 |
| 20260506161636 | 12 | 286 | 3.2 | 3.2 | 0.00 | 0.97 | 0.97 | 73 | 1008.7 |
| 20260506161133 | 12 | 289 | 1.6 | 3.2 | 0.00 | 0.97 | 0.97 | 72 | 1008.6 |
| 20260506160630 | 12 | 281 | 1.6 | 1.6 | 0.00 | 0.97 | 0.97 | 75 | 1008.6 |
| 20260506160127 | 11 | 280 | 1.6 | 1.6 | 0.00 | 0.97 | 0.97 | 74 | 1008.6 |
| 20260506155626 | 11 | 280 | 3.2 | 3.2 | 0.00 | 0.97 | 0.97 | 71 | 1008.8 |
| 20260506155122 | 10 | 292 | 3.2 | 3.2 | 0.00 | 0.97 | 0.97 | 76 | 1008.3 |
| 20260506153224 | 11 | 294 | 4.8 | 8.0 | 0.00 | 0.97 | 0.97 | 77 | 1008.3 |
| 20260506152721 | 10 | 287 | 3.2 | 3.2 | 0.00 | 0.97 | 0.97 | 75 | 1008.4 |
| 20260506152219 | 10 | 292 | 4.8 | 4.8 | 0.00 | 0.97 | 0.97 | 76 | 1008.4 |
| 20260506151718 | 10 | 300 | 3.2 | 3.2 | 0.00 | 0.97 | 0.97 | 75 | 1008.1 |
| 20260506151214 | 10 | 315 | 4.8 | 4.8 | 0.00 | 0.97 | 0.97 | 78 | 1008.0 |
| 20260506150710 | 10 | 338 | 1.6 | 3.2 | 0.00 | 0.97 | 0.97 | 78 | 1008.0 |
| 20260506150207 | 10 | 263 | 1.6 | 3.2 | 0.00 | 0.97 | 0.97 | 80 | 1008.0 |
| 20260506145704 | 10 | 317 | 1.6 | 3.2 | 0.00 | 0.97 | 0.97 | 84 | 1008.4 |
| 20260506145201 | 10 | 319 | 3.2 | 4.8 | 0.00 | 0.97 | 0.97 | 82 | 1008.0 |
| 20260506144659 | 10 | 295 | 3.2 | 3.2 | 0.00 | 0.97 | 0.97 | 86 | 1008.2 |
| 20260506144155 | 10 | 298 | 4.8 | 4.8 | 0.00 | 0.97 | 0.97 | 86 | 1007.6 |
| 20260506143653 | 10 | 276 | 1.6 | 3.2 | 0.00 | 0.97 | 0.97 | 88 | 1007.6 |
| 20260506143151 | 9 | 277 | 4.8 | 4.8 | 0.00 | 0.97 | 0.97 | 88 | 1007.5 |
| 20260506142649 | 9 | 293 | 4.8 | 4.8 | 0.00 | 0.97 | 0.97 | 86 | 1007.8 |
| 20260506142146 | 8 | 322 | 3.2 | 3.2 | 0.00 | 0.97 | 0.97 | 89 | 1007.4 |
| 20260506141644 | 8 | 301 | 4.8 | 4.8 | 0.00 | 0.97 | 0.97 | 93 | 1007.1 |
| 20260506141142 | 8 | 312 | 4.8 | 4.8 | 0.00 | 0.97 | 0.97 | 96 | 1007.4 |
| 20260506140639 | 7 | 291 | 3.2 | 3.2 | 0.00 | 0.97 | 0.97 | 98 | 1007.5 |
| 20260506140136 | 8 | 274 | 1.6 | 1.6 | 0.00 | 0.97 | 0.97 | 99 | 1007.2 |
| 20260506135633 | 7 | 290 | 3.2 | 3.2 | 0.00 | 0.97 | 0.97 | 99 | 1007.0 |
| 20260506135129 | 7 | 338 | 4.8 | 4.8 | 0.00 | 0.97 | 0.97 | 99 | 1007.1 |
| 20260506134626 | 7 | 310 | 3.2 | 4.8 | 0.00 | 0.97 | 0.97 | 99 | 1007.1 |
| 20260506134122 | 7 | 349 | 1.6 | 1.6 | 0.00 | 0.97 | 0.97 | 99 | 1006.9 |
| 20260506133619 | 7 | 261 | 1.6 | 1.6 | 0.00 | 0.97 | 0.97 | 99 | 1006.8 |
| 20260506133116 | 7 | 287 | 1.6 | 1.6 | 0.00 | 0.97 | 0.97 | 99 | 1007.1 |
| 20260506132614 | 7 | 269 | 3.2 | 3.2 | 0.00 | 0.97 | 0.97 | 99 | 1006.9 |
| 20260506132110 | 6 | 323 | 3.2 | 3.2 | 0.00 | 0.97 | 0.97 | 99 | 1007.1 |
| 20260506131608 | 7 | 282 | 1.6 | 3.2 | 0.00 | 0.97 | 0.97 | 99 | 1007.0 |
| 20260506131104 | 7 | 278 | 3.2 | 3.2 | 0.00 | 0.97 | 0.97 | 99 | 1007.2 |
| 20260506130601 | 7 | 293 | 3.2 | 3.2 | 0.00 | 0.97 | 0.97 | 99 | 1007.1 |
| 20260506130059 | 7 | 265 | 1.6 | 1.6 | 0.00 | 0.97 | 0.97 | 99 | 1006.9 |
| 20260506125557 | 7 | 273 | 4.8 | 4.8 | 0.00 | 0.97 | 0.97 | 99 | 1006.9 |
| 20260506125054 | 7 | 276 | 1.6 | 1.6 | 0.00 | 0.97 | 0.97 | 99 | 1006.8 |
| 20260506124552 | 7 | 317 | 1.6 | 1.6 | 0.00 | 0.97 | 0.97 | 99 | 1006.4 |
| 20260506124049 | 7 | 265 | 0.0 | 1.6 | 0.00 | 0.97 | 0.97 | 99 | 1006.2 |
| 20260506123547 | 7 | 290 | 1.6 | 1.6 | 0.00 | 0.97 | 0.97 | 99 | 1005.8 |
| 20260506123045 | 7 | 300 | 1.6 | 1.6 | 0.00 | 0.97 | 0.97 | 99 | 1005.9 |
| 20260506122541 | 7 | 282 | 1.6 | 1.6 | 0.00 | 0.97 | 0.97 | 99 | 1005.9 |
| 20260506122040 | 7 | 297 | 0.0 | 1.6 | 0.00 | 0.97 | 0.97 | 99 | 1006.0 |
| 20260506121537 | 7 | 267 | 1.6 | 1.6 | 0.00 | 0.97 | 0.97 | 99 | 1006.1 |
| 20260506121033 | 7 | 275 | 1.6 | 1.6 | 0.00 | 0.97 | 0.97 | 99 | 1006.3 |
| 20260506120531 | 7 | 279 | 1.6 | 1.6 | 0.00 | 0.97 | 0.97 | 99 | 1006.0 |
| 20260506120028 | 7 | 270 | 1.6 | 1.6 | 0.00 | 0.97 | 0.97 | 99 | 1005.9 |
| 20260506115526 | 7 | 278 | 1.6 | 1.6 | 0.00 | 0.97 | 0.97 | 99 | 1006.0 |
| 20260506115024 | 7 | 252 | 0.0 | 0.0 | 0.00 | 0.97 | 0.97 | 99 | 1006.1 |
| 20260506114521 | 7 | 252 | 0.0 | 0.0 | 0.00 | 0.97 | 0.97 | 99 | 1006.1 |
| 20260506114020 | 6 | 260 | 0.0 | 0.0 | 0.00 | 0.97 | 0.97 | 99 | 1005.9 |
| 20260506113517 | 6 | 267 | 1.6 | 1.6 | 0.00 | 0.97 | 0.97 | 99 | 1005.7 |
| 20260506113015 | 6 | 255 | 0.0 | 0.0 | 0.00 | 0.97 | 0.97 | 99 | 1005.4 |
| 20260506112511 | 6 | 250 | 0.0 | 0.0 | 0.00 | 0.97 | 0.97 | 99 | 1005.0 |
| 20260506112008 | 6 | 279 | 1.6 | 1.6 | 0.00 | 0.97 | 0.97 | 99 | 1005.0 |
| 20260506111506 | 6 | 276 | 1.6 | 1.6 | 0.00 | 0.97 | 0.97 | 99 | 1004.9 |
| 20260506111003 | 6 | 273 | 1.6 | 3.2 | 0.00 | 0.97 | 0.97 | 99 | 1005.2 |
| 20260506110501 | 6 | 258 | 1.6 | 1.6 | 0.00 | 0.97 | 0.97 | 99 | 1004.7 |
| 20260506105957 | 6 | 252 | 0.0 | 0.0 | 0.00 | 0.97 | 0.97 | 99 | 1005.0 |
| 20260506105453 | 6 | 287 | 1.6 | 1.6 | 0.00 | 0.97 | 0.97 | 99 | 1005.2 |
| 20260506104951 | 6 | 333 | 3.2 | 3.2 | 0.13 | 0.97 | 0.97 | 99 | 1005.3 |
| 20260506104449 | 6 | 5 | 3.2 | 3.2 | 0.13 | 0.97 | 0.97 | 99 | 1005.5 |
| 20260506103947 | 6 | 253 | 0.0 | 1.6 | 0.00 | 0.94 | 0.94 | 99 | 1005.2 |
| 20260506103444 | 6 | 258 | 3.2 | 3.2 | 0.00 | 0.94 | 0.94 | 99 | 1004.9 |
| 20260506102940 | 6 | 320 | 1.6 | 3.2 | 0.00 | 0.94 | 0.94 | 99 | 1004.7 |
| 20260506102439 | 6 | 268 | 3.2 | 3.2 | 0.00 | 0.94 | 0.94 | 99 | 1004.7 |
| 20260506101935 | 6 | 308 | 1.6 | 1.6 | 0.00 | 0.94 | 0.94 | 99 | 1004.4 |
| 20260506101432 | 6 | 294 | 3.2 | 3.2 | 0.00 | 0.94 | 0.94 | 99 | 1004.2 |
| 20260506100929 | 6 | 39 | 3.2 | 3.2 | 0.00 | 0.94 | 0.94 | 99 | 1003.7 |
| 20260506100428 | 6 | 282 | 1.6 | 1.6 | 0.00 | 0.94 | 0.94 | 99 | 1003.6 |
| 20260506095925 | 6 | 278 | 1.6 | 1.6 | 0.18 | 0.94 | 0.94 | 99 | 1003.6 |
| 20260506095424 | 6 | 256 | 0.0 | 1.6 | 0.18 | 0.94 | 0.94 | 99 | 1003.4 |
| 20260506094919 | 7 | 287 | 1.6 | 3.2 | 0.00 | 0.91 | 0.91 | 99 | 1003.7 |
| 20260506094418 | 7 | 305 | 1.6 | 1.6 | 0.00 | 0.91 | 0.91 | 99 | 1003.9 |
| 20260506093915 | 7 | 264 | 0.0 | 1.6 | 0.00 | 0.91 | 0.91 | 99 | 1004.0 |
| 20260506093413 | 7 | 272 | 0.0 | 1.6 | 0.00 | 0.91 | 0.91 | 99 | 1003.8 |
| 20260506092911 | 7 | 28 | 1.6 | 1.6 | 0.00 | 0.91 | 0.91 | 99 | 1004.2 |
| 20260506092409 | 7 | 276 | 1.6 | 1.6 | 0.00 | 0.91 | 0.91 | 99 | 1004.0 |
| 20260506091905 | 7 | 273 | 0.0 | 1.6 | 0.13 | 0.91 | 0.91 | 99 | 1003.9 |
| 20260506091403 | 7 | 7 | 3.2 | 3.2 | 0.13 | 0.91 | 0.91 | 99 | 1003.7 |
| 20260506090900 | 7 | 357 | 3.2 | 3.2 | 0.18 | 0.89 | 0.89 | 99 | 1003.8 |
| 20260506090358 | 7 | 289 | 1.6 | 3.2 | 0.18 | 0.89 | 0.89 | 99 | 1003.8 |
| 20260506085854 | 7 | 286 | 3.2 | 3.2 | 0.13 | 0.86 | 0.86 | 99 | 1004.3 |
| 20260506085351 | 7 | 301 | 3.2 | 3.2 | 0.30 | 0.86 | 0.86 | 99 | 1004.2 |
| 20260506084847 | 7 | 340 | 3.2 | 4.8 | 0.30 | 0.84 | 0.84 | 99 | 1004.3 |
| 20260506084344 | 7 | 323 | 3.2 | 3.2 | 0.43 | 0.81 | 0.81 | 99 | 1004.0 |
| 20260506083840 | 7 | 342 | 3.2 | 3.2 | 0.48 | 0.79 | 0.79 | 99 | 1003.9 |
| 20260506083338 | 8 | 345 | 4.8 | 4.8 | 0.30 | 0.74 | 0.74 | 99 | 1003.6 |
| 20260506082835 | 8 | 6 | 0.0 | 1.6 | 0.48 | 0.71 | 0.71 | 99 | 1003.8 |
| 20260506082332 | 8 | 250 | 0.0 | 0.0 | 0.48 | 0.69 | 0.69 | 99 | 1003.7 |
| 20260506081827 | 8 | 321 | 1.6 | 3.2 | 0.30 | 0.66 | 0.66 | 99 | 1003.9 |
| 20260506081326 | 8 | 288 | 1.6 | 3.2 | 0.13 | 0.64 | 0.64 | 99 | 1003.7 |
| 20260506080823 | 8 | 296 | 3.2 | 3.2 | 0.00 | 0.61 | 0.61 | 99 | 1003.3 |
| 20260506080319 | 8 | 333 | 1.6 | 3.2 | 0.18 | 0.61 | 0.61 | 99 | 1003.5 |
| 20260506073304 | 8 | 302 | 1.6 | 1.6 | 0.13 | 0.58 | 0.58 | 99 | 1002.9 |
| 20260506072800 | 9 | 281 | 1.6 | 1.6 | 0.30 | 0.58 | 0.58 | 99 | 1003.2 |
| 20260506072258 | 9 | 267 | 0.0 | 1.6 | 0.18 | 0.56 | 0.56 | 99 | 1003.1 |
| 20260506071755 | 9 | 295 | 1.6 | 1.6 | 0.13 | 0.53 | 0.53 | 99 | 1003.0 |
| 20260506071254 | 9 | 280 | 1.6 | 1.6 | 0.43 | 0.53 | 0.53 | 99 | 1003.1 |
| 20260506070750 | 9 | 302 | 1.6 | 1.6 | 0.48 | 0.51 | 0.51 | 99 | 1003.2 |
| 20260506070247 | 9 | 54 | 1.6 | 3.2 | 0.30 | 0.46 | 0.46 | 99 | 1003.1 |
| 20260506062224 | 10 | 260 | 1.6 | 1.6 | 0.30 | 0.28 | 0.28 | 99 | 1002.9 |
| 20260506061720 | 10 | 254 | 0.0 | 0.0 | 0.30 | 0.25 | 0.25 | 99 | 1003.0 |
| 20260506061218 | 10 | 257 | 0.0 | 0.0 | 0.18 | 0.23 | 0.23 | 99 | 1003.1 |
| 20260506060716 | 10 | 247 | 1.6 | 1.6 | 0.13 | 0.20 | 0.20 | 99 | 1003.2 |
| 20260506060213 | 10 | 259 | 0.0 | 0.0 | 0.13 | 0.20 | 0.20 | 99 | 1003.2 |
| 20260506051145 | 10 | 254 | 0.0 | 0.0 | 0.00 | 0.03 | 0.03 | 99 | 1003.6 |
| 20260506050643 | 10 | 261 | 0.0 | 0.0 | 0.00 | 0.03 | 0.03 | 99 | 1003.7 |
| 20260506050140 | 10 | 255 | 0.0 | 0.0 | 0.00 | 0.03 | 0.03 | 99 | 1003.8 |
| 20260506045133 | 10 | 277 | 1.6 | 1.6 | 0.00 | 0.03 | 0.03 | 99 | 1003.7 |
| 20260506044631 | 10 | 257 | 0.0 | 1.6 | 0.00 | 0.03 | 0.03 | 99 | 1003.9 |
| 20260506044128 | 10 | 252 | 0.0 | 0.0 | 0.00 | 0.03 | 0.03 | 99 | 1003.8 |
| 20260506043625 | 10 | 254 | 0.0 | 0.0 | 0.00 | 0.03 | 0.03 | 99 | 1003.9 |
| 20260506043123 | 10 | 259 | 0.0 | 0.0 | 0.00 | 0.03 | 0.03 | 99 | 1004.0 |
| 20260506042622 | 10 | 289 | 1.6 | 1.6 | 0.00 | 0.03 | 0.03 | 99 | 1004.1 |
| 20260506042119 | 10 | 258 | 1.6 | 1.6 | 0.00 | 0.03 | 0.03 | 99 | 1004.0 |
| 20260506041618 | 10 | 257 | 1.6 | 1.6 | 0.00 | 0.03 | 0.03 | 99 | 1004.1 |
| 20260506041114 | 10 | 269 | 1.6 | 1.6 | 0.13 | 0.03 | 0.03 | 99 | 1003.9 |
| 20260506040612 | 10 | 261 | 1.6 | 3.2 | 0.13 | 0.03 | 0.03 | 99 | 1004.1 |
| 20260506040108 | 11 | 275 | 1.6 | 1.6 | 0.30 | 1.75 | 1.75 | 99 | 1003.9 |
| 20260506035605 | 11 | 265 | 1.6 | 1.6 | 0.48 | 1.75 | 1.75 | 99 | 1004.0 |
| 20260506035102 | 11 | 281 | 3.2 | 3.2 | 0.43 | 1.73 | 1.73 | 99 | 1004.1 |
| 20260506034559 | 12 | 295 | 3.2 | 3.2 | 0.61 | 1.70 | 1.70 | 99 | 1004.3 |
| 20260506034056 | 13 | 264 | 8.0 | 9.7 | 0.61 | 1.65 | 1.65 | 99 | 1004.3 |
| 20260506033553 | 13 | 265 | 8.0 | 9.7 | 0.79 | 1.60 | 1.60 | 99 | 1004.2 |
| 20260506033050 | 13 | 278 | 8.0 | 9.7 | 0.97 | 1.55 | 1.55 | 99 | 1004.2 |
| 20260506032548 | 13 | 276 | 9.7 | 9.7 | 0.79 | 1.47 | 1.47 | 99 | 1004.3 |
| 20260506032044 | 13 | 266 | 9.7 | 11.3 | 0.89 | 1.40 | 1.40 | 99 | 1004.5 |
| 20260506031542 | 13 | 273 | 8.0 | 9.7 | 0.89 | 1.35 | 1.35 | 99 | 1004.6 |
| 20260506031038 | 13 | 261 | 8.0 | 11.3 | 0.48 | 1.27 | 1.27 | 99 | 1004.5 |
| 20260506030537 | 13 | 251 | 3.2 | 3.2 | 0.13 | 1.19 | 1.19 | 99 | 1004.6 |
| 20260506030034 | 13 | 239 | 1.6 | 1.6 | 0.48 | 1.19 | 1.19 | 99 | 1004.4 |
| 20260506025531 | 13 | 265 | 3.2 | 3.2 | 0.48 | 1.17 | 1.17 | 99 | 1004.5 |
| 20260506025026 | 13 | 277 | 4.8 | 8.0 | 0.48 | 1.14 | 1.14 | 99 | 1004.4 |
| 20260506024524 | 13 | 253 | 4.8 | 4.8 | 0.48 | 1.09 | 1.09 | 99 | 1004.6 |
| 20260506024020 | 13 | 253 | 0.0 | 0.0 | 0.43 | 1.07 | 1.07 | 99 | 1004.6 |
| 20260506023516 | 13 | 276 | 8.0 | 9.7 | 0.43 | 1.02 | 1.02 | 99 | 1004.6 |
| 20260506023014 | 14 | 256 | 3.2 | 4.8 | 0.48 | 0.99 | 0.99 | 99 | 1004.7 |
| 20260506022511 | 14 | 265 | 1.6 | 1.6 | 0.61 | 0.97 | 0.97 | 99 | 1004.6 |
| 20260506022009 | 14 | 265 | 4.8 | 4.8 | 0.61 | 0.91 | 0.91 | 99 | 1004.7 |
| 20260506021506 | 14 | 251 | 4.8 | 4.8 | 0.48 | 0.86 | 0.86 | 99 | 1005.0 |
| 20260506021003 | 14 | 270 | 8.0 | 9.7 | 0.48 | 0.81 | 0.81 | 99 | 1004.7 |
| 20260506020501 | 14 | 258 | 6.4 | 8.0 | 0.43 | 0.79 | 0.79 | 99 | 1004.6 |
| 20260506015957 | 14 | 262 | 6.4 | 8.0 | 0.30 | 0.74 | 0.74 | 99 | 1004.7 |
| 20260506015455 | 14 | 261 | 6.4 | 8.0 | 0.30 | 0.71 | 0.71 | 99 | 1004.9 |
| 20260506014952 | 14 | 262 | 4.8 | 4.8 | 0.30 | 0.69 | 0.69 | 99 | 1005.0 |
| 20260506014449 | 14 | 238 | 4.8 | 4.8 | 0.30 | 0.66 | 0.66 | 99 | 1004.6 |
| 20260506013945 | 14 | 290 | 3.2 | 3.2 | 0.13 | 0.64 | 0.64 | 99 | 1004.5 |
| 20260506013443 | 14 | 259 | 4.8 | 4.8 | 0.00 | 0.61 | 0.61 | 99 | 1004.5 |
| 20260506012939 | 14 | 253 | 1.6 | 3.2 | 0.18 | 0.61 | 0.61 | 99 | 1004.3 |
| 20260506012436 | 14 | 257 | 3.2 | 4.8 | 0.18 | 0.61 | 0.61 | 99 | 1004.2 |
| 20260506011933 | 14 | 259 | 4.8 | 8.0 | 0.00 | 0.58 | 0.58 | 99 | 1004.2 |
| 20260506011430 | 14 | 262 | 3.2 | 3.2 | 0.00 | 0.58 | 0.58 | 99 | 1004.2 |
| 20260506010927 | 14 | 188 | 4.8 | 8.0 | 0.00 | 0.58 | 0.58 | 99 | 1004.2 |
| 20260506010426 | 14 | 242 | 3.2 | 4.8 | 0.13 | 0.58 | 0.58 | 99 | 1004.5 |
| 20260506005921 | 14 | 276 | 6.4 | 8.0 | 0.30 | 0.58 | 0.58 | 99 | 1004.4 |
| 20260506005420 | 14 | 260 | 4.8 | 4.8 | 0.36 | 0.56 | 0.56 | 99 | 1004.5 |
| 20260506004914 | 14 | 280 | 4.8 | 8.0 | 0.18 | 0.53 | 0.53 | 99 | 1004.6 |
| 20260506004413 | 14 | 253 | 3.2 | 4.8 | 0.18 | 0.53 | 0.53 | 99 | 1004.5 |
| 20260506003908 | 14 | 257 | 3.2 | 3.2 | 0.00 | 0.51 | 0.51 | 99 | 1004.6 |
| 20260506003405 | 14 | 263 | 4.8 | 4.8 | 0.00 | 0.51 | 0.51 | 99 | 1004.6 |
| 20260506002902 | 14 | 266 | 1.6 | 1.6 | 0.00 | 0.51 | 0.51 | 99 | 1004.5 |
| 20260506002358 | 14 | 251 | 1.6 | 3.2 | 0.00 | 0.51 | 0.51 | 99 | 1004.3 |
| 20260506001853 | 14 | 244 | 1.6 | 1.6 | 0.00 | 0.51 | 0.51 | 99 | 1004.5 |
| 20260506001350 | 14 | 305 | 0.0 | 1.6 | 0.00 | 0.51 | 0.51 | 99 | 1004.5 |
| 20260506000847 | 14 | 251 | 0.0 | 0.0 | 0.00 | 0.51 | 0.51 | 99 | 1004.3 |
| 20260506000346 | 14 | 258 | 0.0 | 1.6 | 0.00 | 0.51 | 0.51 | 99 | 1004.4 |
| 20260505235842 | 15 | 248 | 0.0 | 1.6 | 0.00 | 0.51 | 0.51 | 99 | 1004.4 |
| 20260505235339 | 15 | 245 | 0.0 | 0.0 | 0.00 | 0.51 | 0.51 | 99 | 1004.4 |
| 20260505234836 | 14 | 256 | 1.6 | 1.6 | 0.00 | 0.51 | 0.51 | 99 | 1004.4 |
| 20260505234334 | 14 | 274 | 3.2 | 3.2 | 0.00 | 0.51 | 0.51 | 99 | 1004.6 |
| 20260505233831 | 14 | 248 | 4.8 | 4.8 | 0.00 | 0.51 | 0.51 | 99 | 1004.5 |
| 20260505233329 | 14 | 263 | 3.2 | 3.2 | 0.00 | 0.51 | 0.51 | 99 | 1004.5 |
| 20260505232826 | 14 | 263 | 4.8 | 4.8 | 0.00 | 0.51 | 0.51 | 99 | 1004.7 |
| 20260505232324 | 14 | 255 | 3.2 | 3.2 | 0.00 | 0.51 | 0.51 | 99 | 1004.7 |
| 20260505231820 | 14 | 262 | 1.6 | 1.6 | 0.00 | 0.51 | 0.51 | 99 | 1004.9 |
| 20260505231318 | 14 | 269 | 4.8 | 8.0 | 0.00 | 0.51 | 0.51 | 99 | 1005.0 |
| 20260505230816 | 14 | 241 | 6.4 | 8.0 | 0.13 | 0.51 | 0.51 | 99 | 1004.9 |
| 20260505230313 | 14 | 254 | 4.8 | 4.8 | 0.30 | 0.51 | 0.51 | 99 | 1004.7 |
| 20260505225809 | 14 | 258 | 3.2 | 4.8 | 0.18 | 0.48 | 0.48 | 99 | 1005.0 |
| 20260505225307 | 14 | 274 | 4.8 | 4.8 | 0.30 | 0.48 | 0.48 | 99 | 1005.1 |
| 20260505224801 | 14 | 273 | 6.4 | 8.0 | 0.30 | 0.46 | 0.46 | 99 | 1004.7 |
| 20260505224300 | 14 | 254 | 8.0 | 9.7 | 0.30 | 0.43 | 0.43 | 99 | 1004.9 |
| 20260505223757 | 14 | 255 | 6.4 | 8.0 | 0.13 | 0.41 | 0.41 | 99 | 1005.2 |
| 20260505223253 | 14 | 250 | 8.0 | 8.0 | 0.30 | 0.41 | 0.41 | 99 | 1005.1 |
| 20260505222749 | 14 | 260 | 12.9 | 12.9 | 0.30 | 0.38 | 0.38 | 99 | 1005.0 |
| 20260505222246 | 14 | 278 | 9.7 | 12.9 | 0.30 | 0.36 | 0.36 | 99 | 1005.0 |
| 20260505221743 | 14 | 262 | 8.0 | 11.3 | 0.30 | 0.33 | 0.33 | 99 | 1005.1 |
| 20260505221239 | 14 | 262 | 8.0 | 9.7 | 0.79 | 0.30 | 0.30 | 98 | 1005.1 |
| 20260505220736 | 14 | 248 | 6.4 | 8.0 | 1.07 | 0.28 | 0.28 | 98 | 1005.2 |
| 20260505220233 | 15 | 254 | 11.3 | 14.5 | 1.19 | 0.20 | 0.20 | 96 | 1005.1 |
| 20260505215732 | 15 | 276 | 17.7 | 20.9 | 0.71 | 0.13 | 0.13 | 91 | 1004.9 |
| 20260505215229 | 19 | 268 | 25.7 | 29.0 | 0.00 | 0.00 | 0.00 | 71 | 1004.9 |